{"data":{"norad_id":65391,"intl_designator":"2025-191N","name":"STARLINK-34786","alt_names":[],"object_type":"PAYLOAD","status":"ACTIVE","operator":null,"country":"US","launch_date":"2025-08-30","launch_site_code":"AFWTR","launch_vehicle":null,"mission":null,"orbit_class":"UNKNOWN","rcs_meters":null,"size_class":null,"mass_kg":null,"dimensions":null,"purposes":["comms"],"wikipedia_slug":null,"has_3d_model":false,"image_url":null,"decayed_at":null,"tle_current":{"epoch":"2026-05-25T03:00:06.079104Z","epoch_age_seconds":74961,"freshness":"FRESH","line1":"1 65391U 25191N   26145.12507036  .00002126  00000+0  15128-3 0  9994","line2":"2 65391  97.4538  16.5353 0002047  68.9900 291.1546 15.05665247 41778","mean_motion":15.05665247,"eccentricity":0.0002047,"inclination_deg":97.4538,"raan_deg":16.5353,"arg_perigee_deg":68.99,"mean_anomaly_deg":291.1546,"bstar":0.00015128,"rev_number":4177,"period_min":95.638788427186,"perigee_km":548.04630576922,"apogee_km":550.88246577656,"semimajor_km":6927.6013857729,"source":"CELESTRAK","updated_at":"2026-05-25T13:38:20.774438Z"}}}